DAL998 KBOS-KMIA

Flight info

Callsign DAL998
Flight time N/A
Altitude 34000
Route SSOXS7 SSOXS Q167 RIFLE HEADI Q97 KALDA Q101 SKARP Y313 HOAGG BNFSH3
Aircraft B739/M-SDE2E3FGHIRWXY/LB1

Departure

Time N/A
Airport Boston Logan International Airport (KBOS)

Arrival

Time 2026-05-05 17:31
Airport Miami International Airport (KMIA)
Time Latitude Longitude Altitude Speed Heading
2026-05-05 16:45 28.91333 -78.98651 34116 ft 498 kts 193°
2026-05-05 16:45 28.87879 -78.98946 34113 ft 498 kts 193°
2026-05-05 16:45 28.81017 -78.99531 34113 ft 498 kts 193°
2026-05-05 16:46 28.74100 -79.00120 34109 ft 498 kts 193°
2026-05-05 16:46 28.67183 -79.00709 34104 ft 499 kts 193°
2026-05-05 16:47 28.60257 -79.01297 34110 ft 499 kts 193°
2026-05-05 16:47 28.53324 -79.01885 34107 ft 500 kts 193°
2026-05-05 16:48 28.46385 -79.02473 34109 ft 499 kts 193°
2026-05-05 16:48 28.39458 -79.03059 34101 ft 499 kts 193°
2026-05-05 16:49 28.32596 -79.03895 34079 ft 485 kts 205°
2026-05-05 16:49 28.26268 -79.06218 34077 ft 476 kts 210°
2026-05-05 16:50 28.20021 -79.08728 34068 ft 476 kts 210°
2026-05-05 16:50 28.13737 -79.11159 34092 ft 478 kts 209°
2026-05-05 16:51 28.07408 -79.13530 34104 ft 480 kts 208°
2026-05-05 16:51 28.01049 -79.15887 34102 ft 481 kts 208°
2026-05-05 16:52 27.94676 -79.18247 34098 ft 483 kts 208°
2026-05-05 16:52 27.88294 -79.20611 34096 ft 483 kts 208°
2026-05-05 16:53 27.81904 -79.22978 34096 ft 484 kts 208°
2026-05-05 16:53 27.75505 -79.25344 34090 ft 484 kts 208°
2026-05-05 16:54 27.69102 -79.27709 34093 ft 484 kts 208°
2026-05-05 16:54 27.62713 -79.30065 34058 ft 478 kts 208°
2026-05-05 16:55 27.59584 -79.31209 33825 ft 470 kts 208°
2026-05-05 16:55 27.56499 -79.32342 33462 ft 463 kts 208°
2026-05-05 16:55 27.53446 -79.33466 32986 ft 459 kts 208°
2026-05-05 16:55 27.50428 -79.34578 32564 ft 454 kts 208°
2026-05-05 16:56 27.47436 -79.35681 32114 ft 451 kts 207°
2026-05-05 16:56 27.44508 -79.36760 31683 ft 447 kts 207°
2026-05-05 16:56 27.41569 -79.37842 31244 ft 443 kts 207°
2026-05-05 16:56 27.38648 -79.38916 30815 ft 439 kts 207°
2026-05-05 16:57 27.35716 -79.39994 30380 ft 436 kts 206°
2026-05-05 16:57 27.32886 -79.41032 29927 ft 433 kts 206°
2026-05-05 16:57 27.30033 -79.42077 29453 ft 428 kts 206°
2026-05-05 16:57 27.27228 -79.43101 29192 ft 419 kts 206°
2026-05-05 16:58 27.24486 -79.44100 28914 ft 411 kts 206°
2026-05-05 16:58 27.21785 -79.45087 28550 ft 405 kts 207°
2026-05-05 16:58 27.19115 -79.46065 28138 ft 401 kts 207°
2026-05-05 16:58 27.16471 -79.47035 27712 ft 398 kts 207°
2026-05-05 16:59 27.13848 -79.47996 27297 ft 395 kts 207°
2026-05-05 16:59 27.11240 -79.48951 26880 ft 392 kts 207°
2026-05-05 16:59 27.08654 -79.49896 26474 ft 390 kts 207°
2026-05-05 16:59 27.06082 -79.50834 26039 ft 387 kts 206°
2026-05-05 17:00 27.03536 -79.51762 25719 ft 382 kts 206°
2026-05-05 17:00 27.01024 -79.52675 25379 ft 378 kts 206°
2026-05-05 17:00 26.98529 -79.53585 24995 ft 376 kts 206°
2026-05-05 17:00 26.96034 -79.54497 24609 ft 382 kts 206°
2026-05-05 17:01 26.93431 -79.55457 24187 ft 404 kts 206°
2026-05-05 17:01 26.90730 -79.56443 23712 ft 410 kts 206°
2026-05-05 17:01 26.88011 -79.57423 23211 ft 410 kts 205°
2026-05-05 17:01 26.85306 -79.58394 22752 ft 407 kts 205°
2026-05-05 17:02 26.82614 -79.59361 22294 ft 404 kts 205°
2026-05-05 17:02 26.79943 -79.60322 21852 ft 402 kts 205°
2026-05-05 17:02 26.77291 -79.61277 21398 ft 399 kts 204°
2026-05-05 17:02 26.74656 -79.62227 20982 ft 397 kts 204°
2026-05-05 17:03 26.72038 -79.63170 20540 ft 394 kts 204°
2026-05-05 17:03 26.69435 -79.64109 20114 ft 392 kts 204°
2026-05-05 17:03 26.66854 -79.65038 19688 ft 389 kts 204°
2026-05-05 17:03 26.64290 -79.65959 19254 ft 385 kts 204°
2026-05-05 17:04 26.61747 -79.66871 18826 ft 382 kts 203°
2026-05-05 17:04 26.59221 -79.67760 18391 ft 380 kts 202°
2026-05-05 17:04 26.56709 -79.68636 17920 ft 376 kts 202°
2026-05-05 17:04 26.54225 -79.69503 17479 ft 372 kts 202°
2026-05-05 17:05 26.51763 -79.70363 17021 ft 369 kts 202°
2026-05-05 17:05 26.49326 -79.71215 16588 ft 365 kts 202°
2026-05-05 17:05 26.46927 -79.72085 16175 ft 359 kts 207°
2026-05-05 17:05 26.44869 -79.73518 15885 ft 341 kts 227°
2026-05-05 17:06 26.43265 -79.75394 15679 ft 329 kts 232°
2026-05-05 17:06 26.41765 -79.77280 15455 ft 321 kts 232°
2026-05-05 17:06 26.40292 -79.79113 15242 ft 314 kts 232°
2026-05-05 17:06 26.38858 -79.80871 15038 ft 307 kts 232°
2026-05-05 17:07 26.37512 -79.82705 14836 ft 298 kts 238°
2026-05-05 17:07 26.36373 -79.84577 14655 ft 294 kts 240°
2026-05-05 17:07 26.35238 -79.86466 14468 ft 293 kts 239°
2026-05-05 17:07 26.34092 -79.88335 14286 ft 291 kts 239°
2026-05-05 17:08 26.32939 -79.90191 14095 ft 291 kts 238°
2026-05-05 17:08 26.31787 -79.92038 13908 ft 290 kts 238°
2026-05-05 17:08 26.30633 -79.93883 13689 ft 290 kts 238°
2026-05-05 17:08 26.29478 -79.95727 13474 ft 290 kts 238°
2026-05-05 17:09 26.28327 -79.97564 13274 ft 289 kts 238°
2026-05-05 17:09 26.27181 -79.99391 13083 ft 287 kts 238°
2026-05-05 17:09 26.25973 -80.01166 12876 ft 289 kts 227°
2026-05-05 17:09 26.24268 -80.02376 12697 ft 295 kts 206°
2026-05-05 17:10 26.22281 -80.03004 12512 ft 298 kts 196°
2026-05-05 17:10 26.20241 -80.03451 12307 ft 299 kts 195°
2026-05-05 17:10 26.18192 -80.03881 12111 ft 300 kts 195°
2026-05-05 17:10 26.16143 -80.04320 11916 ft 300 kts 195°
2026-05-05 17:11 26.14090 -80.04773 11708 ft 301 kts 195°
2026-05-05 17:11 26.12042 -80.05234 11511 ft 301 kts 195°
2026-05-05 17:11 26.09986 -80.05702 11308 ft 301 kts 195°
2026-05-05 17:11 26.07938 -80.06169 11113 ft 301 kts 195°
2026-05-05 17:12 26.05888 -80.06653 10881 ft 301 kts 196°
2026-05-05 17:12 26.03856 -80.07179 10629 ft 298 kts 197°
2026-05-05 17:12 26.01858 -80.07706 10381 ft 293 kts 197°
2026-05-05 17:12 25.99888 -80.08224 10143 ft 289 kts 197°
2026-05-05 17:13 25.97946 -80.08732 9894 ft 285 kts 197°
2026-05-05 17:13 25.96017 -80.09234 9638 ft 284 kts 197°
2026-05-05 17:13 25.94097 -80.09732 9381 ft 282 kts 196°
2026-05-05 17:13 25.92263 -80.10453 9115 ft 276 kts 217°
2026-05-05 17:14 25.90867 -80.11847 8927 ft 269 kts 230°
2026-05-05 17:14 25.89616 -80.13393 8699 ft 270 kts 230°
2026-05-05 17:14 25.88440 -80.15016 8459 ft 270 kts 243°
2026-05-05 17:14 25.87882 -80.16994 8254 ft 270 kts 263°
2026-05-05 17:15 25.87754 -80.19074 8012 ft 272 kts 269°
2026-05-05 17:15 25.87729 -80.21207 7573 ft 279 kts 269°
2026-05-05 17:15 25.87696 -80.23369 7155 ft 281 kts 269°
2026-05-05 17:15 25.87643 -80.25549 6727 ft 284 kts 268°
2026-05-05 17:16 25.87582 -80.27733 6270 ft 281 kts 270°
2026-05-05 17:16 25.87927 -80.29817 5881 ft 272 kts 293°
2026-05-05 17:16 25.88777 -80.31644 5681 ft 259 kts 298°
2026-05-05 17:16 25.89640 -80.33377 5279 ft 255 kts 298°
2026-05-05 17:17 25.90496 -80.35106 4886 ft 255 kts 298°
2026-05-05 17:17 25.91337 -80.36821 4591 ft 251 kts 298°
2026-05-05 17:17 25.92176 -80.38520 4129 ft 252 kts 299°
2026-05-05 17:17 25.93026 -80.40234 3627 ft 253 kts 299°
2026-05-05 17:18 25.93854 -80.41949 3259 ft 250 kts 296°
2026-05-05 17:18 25.94196 -80.43823 3025 ft 250 kts 265°
2026-05-05 17:18 25.93620 -80.45598 3022 ft 245 kts 234°
2026-05-05 17:18 25.92322 -80.46803 3024 ft 246 kts 208°
2026-05-05 17:19 25.90702 -80.47357 2976 ft 243 kts 181°
2026-05-05 17:19 25.89131 -80.46979 2990 ft 224 kts 150°
2026-05-05 17:19 25.87966 -80.45934 2981 ft 210 kts 127°
2026-05-05 17:19 25.87192 -80.44583 2846 ft 206 kts 117°
2026-05-05 17:20 25.86515 -80.43219 2657 ft 198 kts 117°
2026-05-05 17:20 25.85855 -80.41894 2362 ft 194 kts 117°
2026-05-05 17:20 25.85207 -80.40613 2117 ft 185 kts 118°
2026-05-05 17:20 25.84615 -80.39438 2003 ft 165 kts 117°
2026-05-05 17:21 25.84046 -80.38315 1815 ft 183 kts 118°
2026-05-05 17:21 25.83388 -80.37033 2088 ft 201 kts 117°
2026-05-05 17:21 25.82655 -80.35564 2501 ft 222 kts 117°
2026-05-05 17:22 25.81338 -80.33038 2712 ft 229 kts 118°
2026-05-05 17:22 25.80571 -80.31525 2997 ft 224 kts 118°
2026-05-05 17:22 25.79871 -80.29983 2970 ft 222 kts 104°
2026-05-05 17:22 25.79874 -80.28331 3002 ft 214 kts 69°
2026-05-05 17:23 25.81092 -80.26684 3016 ft 214 kts 34°
2026-05-05 17:23 25.81931 -80.26049 3021 ft 218 kts 32°
2026-05-05 17:23 25.83208 -80.25124 3023 ft 220 kts 32°
2026-05-05 17:23 25.84550 -80.24347 2987 ft 217 kts 12°
2026-05-05 17:24 25.85990 -80.24438 3011 ft 211 kts 338°
2026-05-05 17:24 25.87134 -80.25450 3021 ft 217 kts 305°
2026-05-05 17:24 25.87867 -80.26936 3020 ft 222 kts 297°
2026-05-05 17:24 25.88550 -80.28472 3020 ft 221 kts 297°
2026-05-05 17:25 25.89229 -80.30005 2997 ft 220 kts 297°
2026-05-05 17:25 25.89684 -80.31030 3005 ft 218 kts 297°
2026-05-05 17:25 25.90535 -80.32977 3000 ft 204 kts 296°
2026-05-05 17:25 25.91136 -80.34359 3020 ft 195 kts 297°
2026-05-05 17:26 25.91704 -80.35703 2847 ft 191 kts 296°
2026-05-05 17:26 25.92261 -80.37032 2482 ft 189 kts 290°
2026-05-05 17:26 25.92304 -80.38461 2099 ft 193 kts 249°
2026-05-05 17:26 25.91465 -80.39619 2094 ft 199 kts 216°
2026-05-05 17:27 25.90302 -80.40479 2071 ft 200 kts 214°
2026-05-05 17:27 25.89147 -80.41318 1998 ft 196 kts 209°
2026-05-05 17:27 25.87863 -80.41649 2016 ft 190 kts 177°
2026-05-05 17:27 25.86549 -80.41521 2011 ft 187 kts 171°
2026-05-05 17:28 25.85384 -80.40952 1988 ft 183 kts 129°
2026-05-05 17:28 25.84765 -80.39735 1862 ft 185 kts 114°
2026-05-05 17:28 25.84138 -80.38486 1652 ft 184 kts 117°
2026-05-05 17:28 25.83515 -80.37272 1397 ft 177 kts 118°
2026-05-05 17:29 25.82916 -80.36098 1214 ft 177 kts 117°
2026-05-05 17:29 25.82317 -80.34919 957 ft 170 kts 117°
2026-05-05 17:29 25.81758 -80.33824 736 ft 156 kts 118°
2026-05-05 17:29 25.81244 -80.32816 574 ft 148 kts 118°
2026-05-05 17:30 25.80741 -80.31826 367 ft 146 kts 119°
2026-05-05 17:30 25.80240 -80.30836 170 ft 147 kts 119°
2026-05-05 17:30 25.79731 -80.29848 22 ft 146 kts 119°
2026-05-05 17:30 25.79289 -80.28974 13 ft 102 kts 119°
2026-05-05 17:31 25.79115 -80.28623 13 ft 28 kts 104°
2026-05-05 17:31 25.79114 -80.28472 14 ft 15 kts 81°
2026-05-05 17:31 25.79088 -80.28368 15 ft 14 kts 121°
2026-05-05 17:31 25.79041 -80.28278 15 ft 13 kts 120°
2026-05-05 17:32 25.78996 -80.28192 15 ft 13 kts 120°
2026-05-05 17:32 25.78953 -80.28107 15 ft 13 kts 119°
2026-05-05 17:32 25.78926 -80.28018 15 ft 13 kts 74°
2026-05-05 17:32 25.78937 -80.27924 15 ft 12 kts 95°
2026-05-05 17:33 25.78964 -80.27843 15 ft 10 kts 37°
2026-05-05 17:33 25.79017 -80.27814 14 ft 8 kts 24°
2026-05-05 17:33 25.79068 -80.27790 14 ft 8 kts 22°
2026-05-05 17:33 25.79117 -80.27775 14 ft 6 kts
2026-05-05 17:34 25.79132 -80.27736 14 ft 6 kts 84°
2026-05-05 17:34 25.79134 -80.27712 14 ft 0 kts 83°